Helicity
46 52 58 50 81 94 138 157 90 5 -35 18 22 47 66 85 107 125 109 99 101 111 99 86 79 72 60 67 87 100 104 89 96 106 121 127 133 147 139 134 122 102 104 111
79 56 52 56 52 67 92 69 50 21 -64 51 62 155 109 85 125 112 101 99 107 110 90 72 59 59 64 67 68 66 77 81 75 84 103 114 128 126 119 126 129 143 143 119
47 88 74 39 59 122 113 134 145 109 183 130 89 86 84 133 135 98 112 119 114 89 72 62 53 55 48 53 59 61 57 56 52 69 94 103 102 110 125 138 146 138 132 108
35 86 72 34 63 73 107 109 109 87 106 64 89 71 115 136 125 102 122 143 114 99 81 65 59 53 33 28 35 27 18 23 27 38 49 56 67 84 97 97 88 75 85 79
60 46 -10 2 36 51 54 26 75 90 79 85 89 140 137 139 110 97 149 130 108 100 83 66 58 46 21 17 27 38 40 20 11 16 25 33 39 32 34 36 45 45 40 38
58 25 16 48 83 47 25 31 56 60 100 146 120 130 156 150 160 180 159 141 128 113 87 66 53 39 17 15 15 42 38 10 11 9 15 20 24 25 22 30 34 20 13 17
47 38 21 14 21 26 44 24 36 34 89 137 185 93 81 102 137 116 125 134 119 101 71 53 55 36 23 21 6 54 40 26 21 10 10 16 24 25 21 19 19 17 19 19
66 49 33 19 56 40 18 30 36 32 53 104 126 81 68 83 85 89 104 110 96 89 65 54 47 43 32 19 31 54 35 31 12 11 13 22 32 20 17 20 25 21 22 25
49 34 26 10 13 21 30 29 31 37 36 78 104 72 55 70 72 66 77 86 82 78 70 51 41 45 38 29 38 46 32 29 24 8 15 32 33 21 20 22 32 34 38 43
78 46 43 33 33 35 29 24 38 47 43 36 53 72 72 60 58 71 92 85 91 87 66 52 34 35 33 55 39 41 37 39 30 16 22 24 24 33 38 42 47 45 46 47
108 87 75 52 40 53 57 61 70 71 69 69 69 53 62 57 48 38 107 161 115 99 81 60 59 27 35 66 64 42 41 39 43 41 45 43 43 49 55 43 49 56 50 54
96 33 81 93 75 92 112 78 73 88 90 81 66 56 55 47 64 95 107 107 112 118 93 74 82 76 53 70 73 65 54 53 59 67 67 60 69 74 59 58 55 52 49 49
72 122 86 70 62 78 110 102 102 94 86 71 68 55 50 44 49 63 117 144 135 135 121 97 100 91 102 97 96 78 62 69 72 80 86 85 86 84 81 66 50 45 39 33
158 97 89 118 64 114 152 148 121 102 87 71 59 52 43 40 52 53 71 113 132 150 160 153 137 115 127 147 145 111 85 63 97 96 103 98 93 89 90 91 86 73 43 39
97 286 126 135 184 190 167 133 117 96 79 70 63 57 53 45 40 42 53 67 119 150 159 177 159 135 166 172 163 145 125 126 120 120 118 106 113 108 100 100 96 85 79 61
125 291 204 156 160 161 144 126 95 82 70 46 48 47 43 39 35 40 62 74 117 106 134 152 144 156 178 175 182 174 163 142 153 160 151 150 149 141 120 106 102 95 88 81
232 256 105 77 122 129 111 84 74 63 52 42 32 38 49 51 57 60 71 78 78 84 119 143 132 164 193 205 207 210 215 206 154 178 180 169 168 156 143 125 111 100 92 81
119 128 126 66 54 79 71 80 83 60 52 56 62 61 65 67 74 101 115 115 94 88 79 86 115 130 155 173 224 236 211 194 220 209 195 172 164 165 156 143 130 107 97 93
50 48 68 73 76 67 65 66 64 56 54 54 59 55 54 62 82 108 130 120 103 96 105 115 102 115 110 134 188 235 235 213 234 225 198 179 177 167 164 155 139 116 99 102
63 57 87 99 104 71 69 75 70 56 42 34 22 25 27 19 14 34 53 66 71 85 122 119 126 100 116 124 132 211 222 225 266 245 200 202 190 186 189 162 148 130 108 102
38 58 70 78 84 70 57 51 44 39 31 25 21 23 15 12 18 30 40 55 54 52 56 94 96 98 128 144 140 208 214 221 209 213 192 168 174 210 182 159 157 140 115 115
53 78 94 122 107 67 53 53 44 37 30 24 19 18 18 21 27 33 26 24 51 66 54 48 70 81 101 93 175 164 186 193 189 210 194 176 165 151 147 156 153 142 134 135
25 44 62 128 129 73 51 62 45 18 1 0 4 12 15 15 19 27 40 49 45 50 52 49 38 44 72 104 156 166 178 175 175 189 178 143 130 138 140 150 156 161 148 132
33 40 44 72 117 84 56 48 36 6 -1 6 7 2 -6 1 13 31 22 32 35 38 42 46 55 51 72 120 140 156 165 154 150 165 157 72 106 130 144 154 164 140 106 92
23 22 32 57 82 89 65 75 45 19 13 15 12 6 8 10 23 27 30 34 42 45 47 59 49 40 70 122 136 140 137 135 135 130 59 56 113 147 154 146 121 109 94 94
14 18 23 26 43 77 73 42 38 31 26 26 24 22 13 13 18 27 28 42 39 47 43 48 55 61 68 84 107 114 101 84 66 63 54 54 85 96 99 107 105 79 82 97
23 10 12 42 67 77 59 45 44 28 24 28 26 21 27 28 34 45 50 42 48 47 48 44 40 44 69 66 64 54 57 59 41 42 57 80 91 94 105 108 94 91 94 96
Wind_Speed
36 37 30 40 33 28 45 42 46 65 70 69 45 34 33 26 25 28 33 36 36 35 38 38 40 42 43 42 39 36 35 34 35 35 35 35 37 37 36 36 36 36 38 41
46 41 39 42 48 15 34 43 51 75 75 55 16 28 21 25 25 26 30 34 38 35 35 36 37 38 37 36 35 33 31 32 32 32 31 31 32 33 33 33 35 37 38 39
42 41 45 60 45 28 33 26 25 36 28 31 30 17 17 22 18 25 33 34 34 34 34 34 35 34 33 31 29 28 28 29 30 28 27 27 28 29 30 32 33 34 36 37
40 38 49 42 43 38 21 31 26 27 37 20 30 34 29 16 15 27 34 35 32 31 31 29 30 30 29 27 25 26 28 28 27 25 25 26 27 28 30 31 31 32 34 36
39 43 59 53 37 36 33 54 11 26 23 37 40 38 38 30 29 29 28 29 27 24 26 26 26 25 26 25 23 23 26 27 24 24 25 27 29 30 30 30 30 31 33 35
35 42 43 37 37 33 29 53 41 10 10 23 23 17 38 23 27 25 29 17 19 18 20 21 23 21 21 21 20 21 21 22 23 25 27 28 30 30 29 30 31 31 33 35
30 44 49 50 46 31 34 40 43 41 5 11 14 28 29 13 20 14 10 17 14 13 17 19 18 18 18 19 19 18 19 21 24 25 27 28 28 28 28 28 29 31 32 35
23 36 45 35 28 31 40 41 40 37 19 6 12 20 17 18 10 7 11 12 13 14 18 16 14 14 15 16 16 15 17 19 21 23 24 24 25 26 26 27 29 30 31 34
19 28 40 37 37 41 37 40 36 32 23 11 7 9 7 13 16 14 9 7 14 16 16 17 14 11 10 10 12 12 13 15 17 18 19 20 21 21 22 24 27 29 32 34
32 44 56 49 45 40 36 36 30 26 19 14 12 10 12 15 18 13 8 11 13 16 20 18 14 7 7 7 9 9 9 11 12 13 15 16 17 19 20 23 26 28 32 35
51 52 51 55 47 39 37 34 31 27 26 24 24 20 14 12 16 22 12 7 15 14 24 22 17 15 9 4 3 6 8 8 9 11 12 13 17 19 20 23 25 27 31 35
63 53 52 57 48 35 29 27 28 28 27 29 31 34 34 34 25 20 14 14 3 18 25 25 18 19 15 10 6 7 9 9 8 9 10 12 16 22 24 25 28 30 31 34
70 70 70 64 40 30 19 22 26 25 30 35 39 42 43 46 46 40 30 21 18 12 15 37 26 23 20 17 12 12 11 12 12 12 11 12 15 18 22 27 29 29 30 34
71 72 63 46 42 27 23 22 25 32 36 40 45 48 50 52 53 51 46 32 25 22 20 21 23 27 29 21 17 16 17 15 15 14 13 15 16 19 24 27 30 33 29 26
74 75 73 43 34 27 27 29 32 36 40 45 47 50 50 54 56 56 53 46 36 28 25 25 26 28 24 21 24 25 24 24 22 21 19 19 21 23 25 26 29 33 34 34
52 62 51 40 36 34 33 36 39 40 44 46 51 52 54 56 56 56 53 46 39 37 30 26 28 31 27 26 25 28 28 26 24 24 23 24 23 24 26 28 30 34 35 37
48 54 47 41 37 37 39 38 40 43 44 48 53 56 55 56 56 55 53 47 44 43 37 31 31 32 30 29 28 29 32 31 28 28 27 25 24 26 27 29 31 34 38 37
36 43 37 39 36 35 36 38 39 43 44 45 48 51 52 51 53 55 54 50 47 47 45 42 40 35 30 30 31 33 32 30 29 28 26 26 26 27 27 29 31 35 38 38
34 31 29 26 27 27 29 30 33 36 39 43 46 48 49 50 50 48 49 49 49 50 52 41 39 37 36 33 30 31 31 31 30 29 30 28 29 27 28 29 32 35 36 38
39 29 27 24 24 24 26 28 31 35 39 42 44 46 48 49 49 47 45 44 46 49 48 45 43 43 39 33 29 31 31 31 31 33 31 30 29 29 30 32 35 35 36 37
35 30 23 23 25 26 28 31 33 36 39 41 43 46 49 49 48 48 46 45 44 47 48 48 45 43 39 35 30 31 30 30 30 30 29 28 29 32 32 33 36 37 37 38
36 33 29 27 26 27 31 33 34 36 39 41 43 45 46 47 49 48 44 45 50 51 48 48 45 40 37 31 26 25 25 26 27 28 28 28 28 29 28 30 34 36 36 40
37 36 32 34 34 34 35 37 36 38 40 42 43 45 46 48 48 48 49 50 53 52 50 48 45 37 30 26 26 22 24 25 27 29 27 28 28 29 30 32 34 34 37 41
43 39 37 38 40 36 38 39 39 40 42 43 44 46 47 50 49 43 52 53 53 54 53 48 41 37 26 25 23 23 28 29 29 28 27 27 27 28 31 33 34 35 37 38
42 38 39 41 43 43 41 39 39 42 44 45 45 47 48 48 47 54 54 54 54 53 51 48 39 34 27 21 17 18 20 22 23 20 13 16 21 24 24 21 22 22 23 31
48 48 46 45 47 46 41 40 39 43 45 47 47 49 51 52 52 53 52 53 53 51 48 47 44 38 31 27 22 16 12 14 11 6 1 7 9 4 3 10 16 17 19 25
54 50 51 50 47 44 43 42 44 48 46 48 52 51 53 53 53 53 52 52 51 50 49 48 47 42 32 28 27 25 21 12 10 11 8 2 3 5 10 13 16 19 22 26
Wind_Direction
290 292 300 290 287 190 197 199 197 224 220 255 276 281 273 269 272 270 272 279 285 292 293 299 303 310 311 313 315 315 315 319 319 322 326 330 332 338 343 345 347 350 350 349
283 290 295 294 284 272 201 204 212 244 239 279 261 277 270 269 268 273 277 286 285 293 297 303 308 315 317 318 320 322 323 325 328 329 331 334 340 343 347 348 349 351 352 354
291 292 292 287 287 271 278 270 227 211 215 298 286 241 229 263 258 272 278 288 289 291 296 304 308 314 317 323 329 335 336 334 331 338 346 351 357 359 358 357 358 357 358 357
294 297 287 295 301 300 279 282 236 242 287 243 281 289 273 256 246 275 281 288 291 292 298 305 311 313 315 322 336 339 331 330 341 358 9 18 22 20 14 10 8 5 6 8
290 289 276 285 302 300 303 286 237 216 248 280 283 277 277 270 277 282 288 288 292 299 300 305 311 317 317 323 336 345 332 334 355 17 29 35 38 37 31 26 19 15 12 12
297 292 292 301 300 312 322 284 299 311 242 264 282 254 270 275 287 290 285 298 295 301 303 309 311 321 325 332 344 341 349 4 19 35 46 51 52 47 36 27 21 18 19 16
302 292 288 273 280 309 304 295 294 295 114 177 231 278 282 305 300 299 301 287 300 305 305 309 318 323 329 329 327 353 14 25 39 49 55 58 48 44 37 30 24 21 19 12
311 300 293 305 310 303 293 301 306 312 336 128 280 285 296 301 316 312 298 293 293 296 301 307 322 329 337 328 329 1 29 41 53 61 56 51 44 37 33 28 20 19 16 11
312 312 297 300 297 298 305 297 305 313 336 33 18 327 332 318 307 304 303 302 289 292 301 302 312 337 349 341 337 1 31 49 53 58 58 48 35 30 29 19 15 13 7 7
308 298 283 290 293 299 304 306 312 319 339 357 357 13 348 335 309 318 311 287 281 285 288 294 302 333 351 349 340 355 34 42 36 50 42 37 28 23 20 12 4 3 1 359
288 289 293 285 290 298 299 300 302 304 305 306 307 315 333 338 322 313 329 307 270 268 280 287 291 297 318 340 359 342 347 0 15 11 23 27 12 5 6 4 2 359 357 354
280 292 288 284 294 295 294 300 300 297 297 298 298 298 300 302 311 313 314 308 254 278 278 282 284 286 293 299 303 311 317 324 339 346 359 2 357 350 348 353 354 354 355 353
278 281 277 279 296 302 305 298 298 302 299 295 296 297 297 296 296 298 300 296 287 267 274 275 280 281 281 286 286 286 294 308 314 320 329 333 339 340 343 342 345 348 350 347
281 279 270 276 283 292 295 301 306 299 298 297 294 295 294 293 292 292 293 296 290 284 279 275 275 276 276 275 275 276 288 295 302 306 310 315 322 327 331 335 338 341 350 353
271 274 263 269 275 279 287 291 296 299 301 297 297 296 296 294 292 290 293 296 295 288 280 276 274 274 272 266 270 275 283 289 295 300 305 310 315 320 324 330 333 336 343 345
268 265 258 260 262 272 280 287 291 297 298 299 299 298 297 297 296 295 295 297 295 291 286 279 278 280 271 265 263 272 278 283 290 298 300 303 309 313 317 322 327 330 335 339
263 256 250 262 269 273 276 286 291 294 299 301 299 297 303 301 297 297 296 299 296 295 295 289 286 285 278 269 262 270 271 279 284 293 296 298 301 305 311 316 321 325 328 336
191 243 269 269 275 278 281 287 292 296 300 303 304 304 308 311 307 300 296 298 297 296 296 296 294 293 286 277 271 273 272 274 279 284 293 296 297 304 308 313 318 322 327 333
282 291 292 303 303 296 290 294 297 299 304 307 309 312 316 316 315 314 306 300 297 295 295 300 299 297 291 284 278 274 272 274 277 282 292 294 297 301 306 310 315 320 326 330
275 307 308 318 302 305 300 307 307 305 308 310 314 317 320 324 324 321 320 314 308 302 303 303 301 297 295 291 280 278 275 272 276 283 288 290 293 297 302 306 311 317 323 328
296 281 338 346 314 310 306 312 313 312 316 321 322 321 320 323 326 326 326 324 323 318 310 305 304 302 299 294 284 282 277 276 277 281 284 286 290 295 299 304 310 316 321 324
303 302 311 313 322 320 313 312 315 320 324 327 329 331 330 329 328 328 331 328 320 317 319 318 314 309 303 300 294 287 281 279 281 284 283 287 291 294 299 306 311 315 321 324
302 307 304 291 292 305 310 311 313 318 324 328 331 333 335 334 331 329 325 323 317 316 318 322 327 326 318 307 299 291 288 285 285 289 284 285 291 297 302 308 311 317 321 324
302 304 302 292 290 303 309 311 314 316 319 323 325 326 324 322 329 346 327 324 324 318 316 321 330 333 340 331 318 304 294 287 289 292 288 287 295 304 308 312 315 320 323 327
303 309 302 294 288 290 302 315 323 318 315 318 322 321 327 334 338 328 330 329 324 326 326 329 336 338 342 348 345 337 321 308 301 294 286 297 308 315 320 326 328 332 334 333
292 294 295 294 285 292 301 313 324 315 312 311 320 321 318 322 329 335 340 341 334 330 329 329 335 343 343 337 341 354 4 342 331 317 246 166 173 187 319 333 333 333 334 337
286 292 290 290 293 299 300 308 312 304 310 314 314 318 321 326 331 339 343 343 341 335 329 324 324 332 346 343 335 334 336 350 124 143 152 153 338 330 332 331 333 336 338 338